Total_Precipitation_Accumulation
2.60 2.58 2.41 2.16 1.71 1.49 1.69 1.83 1.55 1.58 1.67 1.74 2.04 2.29 2.39 2.58 3.50 4.35 5.27 2.67 4.35 5.07 1.96 0.91 0.87 0.75 0.57 0.72 1.33 1.20 1.89 1.82 2.25 2.35 2.10 2.01 1.78 1.29 1.00 0.65 0.59 1.08 2.04 2.23 2.16 2.54 1.13 0.33 0.48 1.02 1.37 1.24 1.18 1.27
2.98 2.62 2.24 1.91 1.52 1.50 1.64 1.86 1.62 1.56 1.51 1.62 1.75 1.94 2.26 2.46 3.20 3.93 4.85 3.02 3.57 5.61 3.51 1.01 1.03 0.68 0.45 0.52 0.95 1.34 1.56 1.45 1.73 2.17 1.78 1.69 1.51 1.33 1.19 1.26 0.64 0.84 1.09 1.57 1.71 1.41 0.74 0.40 0.52 0.98 1.01 1.07 1.06 1.10
3.08 2.82 2.56 2.00 1.65 1.59 1.69 1.74 1.57 1.46 1.34 1.41 1.69 1.77 2.12 2.65 3.13 3.99 3.91 3.35 5.44 7.06 3.74 1.52 1.06 0.68 0.64 0.51 0.71 1.81 1.15 0.78 1.14 1.18 2.07 1.75 1.41 0.84 1.02 0.85 0.87 1.03 0.64 1.02 1.20 1.12 0.58 0.44 0.40 0.48 0.56 0.74 0.83 0.77
2.86 2.66 2.32 2.00 1.71 1.67 1.51 1.50 1.40 1.36 1.31 1.37 1.58 1.93 2.19 2.84 3.24 3.86 3.41 3.25 4.34 4.43 3.97 2.16 0.87 0.68 0.67 0.76 0.74 0.99 0.90 0.70 1.08 1.78 2.78 2.36 1.70 1.03 1.28 0.91 0.88 1.17 0.90 1.07 1.32 1.65 0.83 0.71 0.84 0.83 0.64 0.62 0.52 0.48
2.21 2.17 2.05 1.89 1.53 1.52 1.42 1.48 1.45 1.37 1.46 1.40 1.58 1.96 2.71 3.17 3.93 4.46 3.00 2.98 3.08 3.36 3.46 2.26 1.07 0.81 0.68 0.82 0.75 0.90 1.00 1.22 1.73 2.46 2.57 1.55 0.91 1.44 1.68 1.04 0.83 0.78 1.03 1.24 1.49 1.46 1.43 1.41 1.14 0.84 0.77 0.65 0.46 0.28
1.58 1.59 1.83 1.90 1.47 1.43 1.32 1.39 1.55 1.59 1.49 1.51 1.85 2.12 2.86 3.93 5.66 6.41 8.07 5.39 3.11 2.75 4.14 3.12 1.77 1.14 0.79 0.84 1.07 1.37 1.81 2.16 2.32 2.41 1.60 0.97 0.57 1.77 2.49 1.16 0.77 0.83 1.14 1.09 1.10 1.03 0.87 0.84 0.71 0.59 0.55 0.52 0.56 0.54
1.43 1.49 1.83 1.68 1.36 1.21 1.24 1.40 1.49 1.61 1.80 1.95 2.21 2.38 3.59 5.18 4.96 3.93 3.50 2.81 2.03 2.54 3.98 3.23 2.29 1.71 1.29 1.20 1.78 1.78 2.01 3.01 3.25 3.03 1.93 0.86 0.71 1.98 2.47 1.19 0.79 0.83 0.94 0.80 0.69 0.69 0.67 0.49 0.38 0.33 0.33 0.41 0.52 0.54
1.43 1.35 1.31 1.28 1.07 1.08 1.16 1.25 1.41 1.63 1.90 2.44 2.68 3.79 5.00 5.44 4.41 2.78 1.09 1.08 1.36 2.73 2.97 2.85 2.61 2.93 1.71 1.85 2.36 2.00 2.20 2.72 3.04 2.57 1.66 1.01 1.32 2.08 2.15 0.81 0.47 0.40 0.42 0.32 0.27 0.24 0.32 0.22 0.18 0.14 0.10 0.11 0.23 0.50
0.99 0.90 0.96 0.91 0.89 0.99 1.03 1.12 1.43 1.72 2.43 3.53 4.57 6.27 8.58 6.86 4.71 2.61 1.31 1.51 1.69 2.51 2.54 1.43 1.72 3.06 2.37 1.93 2.40 2.48 2.29 2.81 1.92 1.79 1.29 1.50 1.60 1.75 1.12 0.46 0.35 0.24 0.26 0.22 0.11 0.09 0.08 0.07 0.14 0.27 0.27 0.16 0.20 0.50
0.96 0.85 0.89 0.89 0.91 0.99 1.11 1.41 1.71 2.42 3.25 3.91 5.42 6.26 7.99 4.67 2.50 2.93 4.97 4.90 4.02 2.65 1.97 1.36 1.11 1.86 2.36 2.41 2.27 2.78 2.33 1.89 1.70 1.09 1.03 1.50 0.96 0.47 0.32 0.24 0.19 0.16 0.18 0.21 0.24 0.17 0.13 0.13 0.15 0.21 0.36 0.35 0.47 0.53
1.30 1.26 1.25 1.31 1.40 1.58 1.81 1.83 2.13 2.57 2.91 3.63 4.15 4.96 4.50 3.32 3.37 4.05 4.30 3.24 2.21 1.49 0.79 0.85 1.10 1.73 1.85 2.17 2.24 1.98 2.54 1.97 1.56 1.17 1.17 1.26 0.90 0.82 0.31 0.17 0.12 0.13 0.17 0.26 0.28 0.51 0.35 0.30 0.24 0.36 0.43 0.50 0.56 0.58
1.28 1.45 1.54 1.47 1.50 1.68 1.71 1.71 1.63 1.86 2.04 1.79 2.31 3.14 3.89 3.71 3.04 2.72 2.22 1.41 0.86 0.67 0.50 0.55 0.77 1.00 1.71 1.90 2.00 1.45 1.67 1.72 2.16 1.75 1.82 1.22 1.53 0.68 0.20 0.31 0.32 0.21 0.22 0.25 0.31 0.51 0.40 0.45 0.40 0.43 0.40 0.38 0.54 0.71
1.08 1.15 1.24 1.39 1.34 1.33 1.39 1.47 1.55 1.52 1.65 1.88 1.71 2.16 2.35 2.15 1.92 1.60 1.25 0.89 0.75 0.41 0.41 0.47 0.81 1.04 1.31 1.71 1.97 1.60 1.86 1.74 1.60 1.90 1.24 1.12 0.93 0.68 0.53 0.68 0.67 0.63 0.62 0.72 0.69 0.60 0.58 0.48 0.43 0.42 0.49 0.75 0.90 1.09
0.89 0.95 0.93 1.02 1.23 1.43 1.55 1.63 1.91 2.06 2.13 1.90 1.48 1.43 1.34 1.26 0.95 0.94 1.04 1.00 0.74 0.53 0.47 0.57 1.01 1.33 1.38 1.72 2.02 1.89 1.83 1.39 1.52 1.21 1.20 1.20 0.83 0.90 0.83 0.74 0.63 0.61 0.57 0.58 0.68 0.74 0.82 0.82 0.95 1.06 1.09 1.36 1.38 1.33
0.70 0.60 0.80 1.20 1.31 1.34 1.34 1.44 1.82 1.66 1.73 1.40 0.91 0.87 0.90 1.06 0.85 0.85 0.82 0.69 0.72 0.86 0.93 1.16 1.56 1.54 1.37 1.71 1.26 1.22 1.12 0.95 0.78 1.61 1.66 1.32 0.97 0.91 0.77 0.71 0.67 0.69 0.70 0.73 0.84 0.88 1.10 1.19 1.07 1.20 1.25 1.25 1.27 1.26
0.50 0.80 0.93 0.99 0.86 0.93 1.15 1.88 2.12 1.27 1.13 0.89 0.93 1.04 0.92 1.02 1.04 0.87 0.74 0.74 0.91 1.27 1.50 1.60 1.66 1.62 1.52 1.16 0.85 0.69 0.68 0.88 1.59 1.27 1.06 1.05 0.89 0.92 0.95 0.94 0.93 0.90 0.81 0.83 0.88 0.86 0.85 0.91 0.99 1.15 1.01 0.93 1.19 1.33
0.63 0.88 0.97 0.84 0.92 1.06 1.49 2.02 1.79 1.43 0.94 0.83 1.28 1.37 1.20 1.23 1.53 1.26 1.01 0.95 0.95 1.00 1.25 1.33 1.22 1.00 1.02 0.84 0.75 0.73 1.07 1.27 1.14 1.00 0.94 0.93 0.95 1.02 1.09 1.04 1.01 0.80 0.70 0.70 0.69 0.69 0.69 0.75 0.68 0.59 0.66 0.91 0.90 1.01
0.62 0.61 0.79 0.87 1.01 1.36 1.60 1.28 1.31 0.84 0.80 1.02 1.22 1.42 0.88 1.01 1.03 1.00 0.95 0.74 0.68 0.68 0.89 1.17 1.06 0.80 0.95 1.04 1.14 1.36 1.36 1.18 1.15 1.04 0.99 1.01 0.96 0.90 0.84 0.78 0.83 0.76 0.65 0.58 0.49 0.46 0.44 0.41 0.32 0.38 0.40 0.47 0.49 0.60
0.80 0.77 1.09 1.19 0.92 1.12 1.20 0.84 0.51 0.75 1.33 0.96 0.92 0.73 0.56 0.70 0.69 0.64 0.54 0.35 0.26 0.49 0.94 1.04 0.90 1.02 1.10 1.15 1.23 1.17 1.06 0.97 0.99 0.88 0.79 0.79 0.78 0.73 0.69 0.63 0.68 0.76 0.61 0.50 0.34 0.26 0.24 0.19 0.19 0.17 0.19 0.19 0.27 0.33
1.22 1.24 1.24 1.05 0.77 0.82 0.43 0.41 0.27 0.49 0.68 0.60 0.51 0.29 0.26 0.48 0.44 0.27 0.35 0.45 0.31 0.46 0.89 1.11 1.31 1.32 1.27 1.21 0.95 0.92 0.81 0.71 0.58 0.49 0.57 0.62 0.63 0.48 0.54 0.48 0.46 0.48 0.47 0.39 0.27 0.20 0.16 0.16 0.17 0.16 0.16 0.17 0.22 0.27
1.71 1.67 1.39 0.86 0.77 0.78 0.55 0.25 0.22 0.18 0.45 0.36 0.29 0.18 0.24 0.27 0.31 0.31 0.23 0.36 0.90 0.83 0.89 0.99 1.05 1.09 0.77 0.76 0.62 0.48 0.53 0.47 0.47 0.34 0.39 0.50 0.52 0.34 0.35 0.39 0.35 0.31 0.29 0.35 0.31 0.31 0.25 0.26 0.22 0.16 0.16 0.17 0.19 0.18
1.47 1.14 1.24 0.84 0.85 0.61 0.43 0.13 0.15 0.16 0.23 0.34 0.30 0.34 0.45 0.41 0.32 0.29 0.32 0.51 0.80 0.93 0.86 0.66 0.56 0.49 0.35 0.36 0.36 0.30 0.32 0.25 0.30 0.40 0.49 0.40 0.44 0.42 0.44 0.49 0.40 0.38 0.35 0.35 0.31 0.30 0.28 0.22 0.14 0.10 0.11 0.17 0.17 0.17
0.73 0.67 0.82 0.67 0.80 0.60 0.40 0.17 0.18 0.10 0.21 0.27 0.25 0.35 0.33 0.34 0.47 0.38 0.66 0.67 0.93 0.93 0.67 0.42 0.34 0.25 0.28 0.35 0.27 0.24 0.16 0.14 0.17 0.24 0.29 0.32 0.32 0.35 0.33 0.35 0.33 0.33 0.30 0.26 0.19 0.19 0.19 0.13 0.07 0.09 0.13 0.18 0.23 0.26
0.78 0.98 0.86 0.53 0.42 0.50 0.36 0.31 0.23 0.21 0.18 0.22 0.33 0.38 0.32 0.35 0.60 0.82 0.82 0.68 0.90 0.58 0.37 0.44 0.40 0.35 0.33 0.34 0.37 0.36 0.39 0.29 0.26 0.30 0.33 0.27 0.30 0.34 0.25 0.21 0.16 0.14 0.13 0.10 0.07 0.08 0.10 0.14 0.14 0.19 0.18 0.20 0.22 0.22
1.20 1.21 1.01 0.73 0.31 0.29 0.23 0.30 0.32 0.32 0.26 0.15 0.25 0.34 0.37 0.43 0.73 0.72 0.59 1.00 0.81 0.56 0.50 0.47 0.50 0.55 0.58 0.57 0.54 0.47 0.38 0.26 0.19 0.21 0.26 0.18 0.22 0.24 0.25 0.26 0.21 0.18 0.14 0.18 0.18 0.15 0.16 0.18 0.24 0.26 0.26 0.26 0.26 0.27
0.97 0.53 0.46 0.51 0.38 0.33 0.32 0.30 0.30 0.26 0.28 0.41 0.44 0.32 0.34 0.76 0.81 0.93 1.02 1.15 0.89 0.73 0.67 0.68 0.62 0.48 0.47 0.48 0.51 0.47 0.33 0.20 0.17 0.19 0.17 0.09 0.14 0.24 0.28 0.31 0.37 0.36 0.25 0.21 0.23 0.29 0.31 0.29 0.32 0.35 0.41 0.35 0.31 0.31
0.71 0.60 0.36 0.33 0.44 0.56 0.68 0.62 0.57 0.54 0.56 0.61 0.59 0.54 0.74 0.98 0.97 1.16 1.11 0.83 0.78 0.81 0.72 0.58 0.46 0.51 0.50 0.40 0.42 0.37 0.21 0.19 0.31 0.30 0.20 0.18 0.17 0.19 0.28 0.35 0.36 0.33 0.22 0.28 0.35 0.38 0.42 0.46 0.44 0.44 0.47 0.47 0.37 0.34
0.56 0.32 0.43 0.42 0.56 0.69 0.72 0.65 0.75 0.90 0.86 0.61 0.56 0.70 0.78 0.80 1.08 1.06 0.88 0.86 0.80 0.69 0.77 0.77 0.61 0.47 0.61 0.70 0.63 0.56 0.45 0.37 0.41 0.39 0.43 0.59 0.41 0.24 0.26 0.31 0.28 0.25 0.24 0.32 0.40 0.49 0.59 0.61 0.56 0.53 0.55 0.52 0.50 0.50
0.37 0.21 0.23 0.29 0.29 0.57 0.63 0.62 0.77 0.69 0.56 0.60 0.78 0.87 0.66 0.63 1.00 0.90 0.85 0.69 0.60 0.57 0.74 0.84 0.93 0.74 0.63 0.92 1.00 0.89 0.87 0.92 0.78 0.75 0.58 0.59 0.56 0.48 0.34 0.33 0.38 0.38 0.35 0.37 0.48 0.51 0.58 0.63 0.59 0.60 0.60 0.62 0.61 0.64
0.16 0.11 0.22 0.11 0.16 0.57 0.73 0.51 0.56 0.52 0.39 0.51 0.55 0.51 0.46 0.90 1.25 0.82 0.61 0.51 0.48 0.57 0.68 0.69 0.74 0.69 0.79 0.81 1.09 1.08 1.10 1.26 1.33 1.05 0.82 0.62 0.51 0.40 0.34 0.33 0.31 0.33 0.34 0.34 0.37 0.52 0.65 0.70 0.80 0.86 0.80 0.86 0.91 0.93
0.19 0.25 0.23 0.16 0.32 0.47 0.40 0.31 0.36 0.42 0.55 0.72 0.59 0.48 0.57 0.84 0.81 0.62 0.50 0.57 0.46 0.35 0.35 0.44 0.49 0.55 0.69 0.82 0.91 0.91 1.14 1.31 1.51 1.38 1.28 1.04 0.80 0.63 0.50 0.41 0.37 0.41 0.49 0.51 0.46 0.46 0.53 0.61 0.65 0.67 0.66 0.67 0.65 0.61
0.32 0.38 0.31 0.28 0.44 0.41 0.33 0.34 0.50 0.65 0.77 0.84 0.96 0.88 0.84 0.53 0.47 0.53 0.53 0.43 0.37 0.32 0.37 0.41 0.53 0.70 0.72 0.91 0.96 1.00 1.05 1.13 1.20 1.27 1.49 1.29 1.04 0.86 0.66 0.57 0.53 0.59 0.65 0.61 0.54 0.53 0.53 0.52 0.61 0.63 0.64 0.66 0.66 0.69
0.32 0.22 0.22 0.26 0.27 0.30 0.34 0.37 0.52 0.54 0.63 0.71 0.87 0.83 0.74 0.47 0.58 0.72 0.54 0.42 0.63 0.55 0.46 0.46 0.52 0.67 0.70 0.63 0.61 0.64 0.63 0.72 0.81 0.88 1.03 1.10 1.07 0.97 0.85 0.75 0.67 0.62 0.61 0.61 0.60 0.57 0.56 0.54 0.59 0.61 0.62 0.58 0.55 0.53